Weather History for KFSM - May, 2013

Change the Weather History Date:

Monday, May 20, 2013

  Actual Average Record
Temperature  
Mean Temperature 76 °F 71 °F  
Max Temperature 88 °F 81 °F 95 °F (2005)
Min Temperature 64 °F 61 °F 40 °F (1894)
Cooling Degree Days 11 6  
Month to date cooling degree days 105 91  
Year to date cooling degree days 178 157  
Growing Degree Days 26 (Base 50)    
Moisture  
Dew Point 65 °F    
Average Humidity 71    
Maximum Humidity 87    
Minimum Humidity 55    
Precipitation  
Precipitation 0.97 in 0.19 in 3.29 in (2001)
Month to date precipitation 2.21 3.60  
Year to date precipitation 17.79 17.32  
Sea Level Pressure  
Sea Level Pressure 29.79 in    
Wind  
Wind Speed 6 mph (South)    
Max Wind Speed 16 mph    
Max Gust Speed 37 mph    
Visibility 8 miles    
Events Fog , Rain , Thunderstorm    
T = Trace of Precipitation, MM = Missing Value Source: NWS Daily Summary

Daily Weather History Graph

Daily Weather History Graph

Search for Another Location

Airport or City:

Trip Planner

Search our weather history database for the weather conditions in past years. The results will help you decide how hot, cold, wet, or windy it might be!

Date:

Astronomy

May. 20, 2013 Rise Set
Actual Time 6:09 AM CDT 8:18 PM CDT
Civil Twilight 5:40 AM CDT 8:47 PM CDT
Nautical Twilight 5:05 AM CDT 9:22 PM CDT
Astronomical Twilight 4:28 AM CDT 10:00 PM CDT
Moon 3:37 PM CDT (5/20) 2:53 AM CDT (5/20)
Length of Visible Light 15h 06m
Length of Day
14h 09m
Waxing Gibbous, 75% of the Moon is Illuminated
May 20
Waxing Gibbous
May 24
Full
May 31
Last Quarter
Jun 8
New
Jun 16
First Quarter

Hourly Weather History & Observations

Time (CDT) Temp. Heat Index Dew Point Humidity Pressure Visibility Wind Dir Wind Speed Gust Speed Precip Events Conditions
12:53 AM 82.0 °F 83.8 °F 64.9 °F 56% 29.73 in 10.0 mi Calm Calm - N/A   Clear
1:53 AM 80.1 °F 81.9 °F 64.9 °F 60% 29.73 in 10.0 mi South 4.6 mph - N/A   Clear
2:53 AM 79.0 °F - 64.9 °F 62% 29.73 in 10.0 mi Calm Calm - N/A   Partly Cloudy
3:53 AM 78.1 °F - 64.9 °F 64% 29.74 in 10.0 mi Calm Calm - N/A   Clear
4:53 AM 75.0 °F - 64.9 °F 71% 29.75 in 10.0 mi NE 5.8 mph - N/A   Clear
5:53 AM 73.4 °F - 64.4 °F 73% 29.78 in 10.0 mi NNE 4.6 mph - N/A   Clear
6:53 AM 73.0 °F - 66.0 °F 79% 29.79 in 10.0 mi ENE 5.8 mph - N/A   Scattered Clouds
7:53 AM 75.9 °F - 66.0 °F 71% 29.80 in 10.0 mi ESE 3.5 mph - N/A   Overcast
8:53 AM 75.9 °F - 66.9 °F 74% 29.80 in 10.0 mi East 3.5 mph - N/A   Overcast
9:53 AM 77.0 °F - 66.9 °F 71% 29.80 in 10.0 mi SSE 5.8 mph - N/A   Overcast
10:09 AM 77.0 °F - 66.2 °F 69% 29.82 in 10.0 mi ESE 3.5 mph - N/A   Overcast
10:53 AM 78.1 °F - 66.9 °F 68% 29.80 in 10.0 mi Calm Calm - N/A   Overcast
11:01 AM 78.8 °F - 68.0 °F 69% 29.82 in 10.0 mi Calm Calm - N/A   Overcast
11:53 AM 79.0 °F - 68.0 °F 69% 29.80 in 10.0 mi South 5.8 mph - N/A   Overcast
12:53 PM 81.0 °F 83.3 °F 66.9 °F 62% 29.78 in 10.0 mi South 13.8 mph 18.4 mph N/A   Overcast
1:53 PM 82.9 °F 85.8 °F 68.0 °F 60% 29.77 in 10.0 mi South 11.5 mph 18.4 mph N/A   Overcast
2:53 PM 84.9 °F 88.8 °F 69.1 °F 59% 29.75 in 10.0 mi South 12.7 mph 18.4 mph N/A   Mostly Cloudy
3:53 PM 84.9 °F 88.8 °F 69.1 °F 59% 29.70 in 10.0 mi SSE 10.4 mph - N/A   Mostly Cloudy
4:53 PM 84.9 °F 89.4 °F 70.0 °F 61% 29.70 in 10.0 mi South 6.9 mph - N/A   Overcast
5:53 PM 84.0 °F 87.8 °F 69.1 °F 61% 29.71 in 8.0 mi SSW 5.8 mph - N/A   Overcast
6:53 PM 82.9 °F 87.0 °F 70.0 °F 65% 29.68 in 9.0 mi South 4.6 mph - N/A   Overcast
7:53 PM 82.0 °F 85.5 °F 69.1 °F 65% 29.70 in 10.0 mi South 4.6 mph - N/A   Overcast
8:53 PM 73.4 °F - 60.8 °F 65% 29.76 in 10.0 mi WNW 16.1 mph 34.5 mph N/A   Overcast
9:00 PM 73.4 °F - 59.0 °F 61% 29.76 in 10.0 mi WNW 11.5 mph 24.2 mph N/A   Overcast
9:14 PM 71.6 °F - 60.8 °F 69% 29.86 in 1.8 mi SW 34.5 mph 49.5 mph 0.00 in Rain Light Rain
9:18 PM 66.2 °F - 62.6 °F 88% 29.87 in 0.5 mi WSW 33.4 mph 49.5 mph 0.01 in Fog , Rain Heavy Rain
9:23 PM 64.4 °F - 60.8 °F 88% 29.88 in 0.5 mi WSW 20.7 mph 40.3 mph 0.39 in Fog , Rain Heavy Rain
9:27 PM 64.4 °F - 60.8 °F 88% 29.86 in 0.8 mi West 13.8 mph 36.8 mph 0.63 in Rain Heavy Rain
9:33 PM 64.4 °F - 62.6 °F 94% 29.86 in 2.0 mi West 8.1 mph 18.4 mph 0.70 in Rain Heavy Rain
9:35 PM 64.4 °F - 62.6 °F 94% 29.85 in 3.0 mi WSW 8.1 mph 18.4 mph 0.72 in Rain Heavy Rain
9:53 PM 66.9 °F - 62.1 °F 84% 29.87 in 10.0 mi SW 15.0 mph - 0.74 in Rain Light Rain
10:16 PM 66.2 °F - 62.6 °F 88% 29.89 in 7.0 mi WSW 13.8 mph - 0.03 in Rain , Thunderstorm Thunderstorms and Rain
10:32 PM 66.2 °F - 62.6 °F 88% 29.93 in 5.0 mi SW 16.1 mph - 0.10 in Rain Rain
10:41 PM 66.2 °F - 62.6 °F 88% 29.91 in 4.0 mi SW 10.4 mph 21.9 mph 0.15 in Rain , Thunderstorm Heavy Rain
10:53 PM 66.0 °F - 63.0 °F 90% 29.81 in 5.0 mi East 5.8 mph - 0.21 in Rain Rain
11:05 PM 66.2 °F - 62.6 °F 88% 29.84 in 10.0 mi SSE 10.4 mph - 0.02 in Rain , Thunderstorm Light Rain
11:25 PM 66.2 °F - 62.6 °F 88% 29.81 in 10.0 mi SE 11.5 mph - 0.02 in   Partly Cloudy
11:53 PM 66.0 °F - 62.1 °F 87% 29.75 in 10.0 mi East 5.8 mph - 0.02 in   Clear